Погода в Аджамке

Украина / Кировоградская область     48°32′19″N   32°32′05″E
темп.,
°C
ветер,
м/с
пор.,
м/с
влажн.,
%
обл.,
%
осадки,
мм/ч
давл.,
гПа
погр.,
м
17 апреля, сб
сб1700:00+4юз6997100 1.3 1015701
03:00+4зюз5997100 3.2 1016710
06:00+4зюз598993 0.6 1017605
09:00+5з577999 0.6 1019607
12:00+9з696484 0.0 10201322
15:00+9з796288 0.1 10201323
18:00+9зюз476696 0.0 1020970
21:00+6зсз227944 0.0 102122
18 апреля, вс
вс1800:00+5з228399 0.0 102023
03:00+5зюз1183100 0.0 102010
06:00+4з228597 0.0 101913
09:00+8юз346971 0.0 1019452
12:00+13юз465240 0.0 10171528
15:00+14зюз454697 0.1 10161879
18:00+13зюз3556100 0.0 1016321
21:00+11зюз3362100 0.0 101653
19 апреля, пн
пн1900:00+8с358199 0.0 1016113
03:00+6с3493100 0.0 101679
06:00+5с348878 0.0 101690
09:00+8с3368100 0.0 1016410
12:00+12ссз225799 0.0 1014958
15:00+14ссз2250100 0.0 10131629
18:00+12ссв456097 0.0 1012474
21:00+10ссв5864100 0.0 1011325
20 апреля, вт
вт2000:00+8св61070100 0.0 1009413
03:00+8ссв51175100 0.0 1007353
06:00+7ссв61390100 0.9 1003486
09:00+8ссв91391100 9.9 999876
12:00+8с91489100 6.4 9971028
15:00+7ссз81390100 10.8 997790
18:00+8ссз71292100 4.7 9991134
21:00+9зсз61288100 5.4 1002683
21 апреля, ср
ср2100:00+7з6138780 0.1 1005414
03:00+6зюз61089100 0.1 1008360
06:00+4зюз51094100 0.0 1010321
09:00+8з697196 0.0 1012724
12:00+11з685498 0.0 10141648
15:00+12зюз475598 0.0 10141363
18:00+12юз566558 0.6 1015976
21:00+8юз358676 3.0 101790